{"data":{"norad_id":57072,"epoch":"2026-09-19T22:08:05.615808Z","epoch_age_seconds":170832,"freshness":"FRESH","line1":"1 57072U 23088AA  26262.92228722 -.00000232  00000+0  11070-5 0  9995","line2":"2 57072  43.0026  79.3774 0001077 257.6852 102.3879 15.27576502179226","mean_motion":15.27576502,"eccentricity":0.0001077,"inclination_deg":43.0026,"raan_deg":79.3774,"arg_perigee_deg":257.6852,"mean_anomaly_deg":102.3879,"bstar":1.107e-6,"rev_number":17922,"period_min":94.266964575238,"perigee_km":482.32061945941,"apogee_km":483.79852120066,"semimajor_km":6861.19657033,"source":"CELESTRAK","updated_at":"2026-09-21T09:00:33.552962Z"}}